Location: Newark
(21.1200°N, 73.4000°E)
Time: 01:00:06
(UTC+00:00)

SR - Pass Details

Date: 02 February 2020
Orbit: 575 x 881 km, 66.7° (Epoch: 20 February)

Event Time Altitude Azimuth Distance (km) Brightness Sun altitude
Rises 15:43:01 0° 244° (WSW) 3,364 ? -38.7°
Reaches altitude 10° 15:46:30 10° 266° (W) 2,476 ? -39.6°
Maximum altitude 15:49:49 16° 301° (WNW) 2,136 ? -40.3°
Enters shadow 15:50:53 15° 314° (NW) 2,184 ? -40.6°
Drops below altitude 10° 15:53:12 10° 337° (NNW) 2,528 - -41.1°
Sets 15:56:50 0° 358° (N) 3,474 - -42.0°
